Change the Weather History Date:

Monday, April 28, 2014

  Actual Average Record
Temperature  
Mean Temperature 75 °F 66 °F  
Max Temperature 85 °F 79 °F 90 °F (1970)
Min Temperature 65 °F 53 °F 39 °F (1978)
Degree Days  
Heating Degree Days 0 2  
Month to date heating degree days 116 126  
Since 1 July heating degree days 2841 2530  
Cooling Degree Days 10 3  
Month to date cooling degree days 51 52  
Year to date cooling degree days 60 76  
Growing Degree Days 25 (Base 50)    
Moisture  
Dew Point 67 °F    
Average Humidity 76    
Maximum Humidity 93    
Minimum Humidity 58    
Precipitation  
Precipitation 3.74 in 0.15 in 3.96 in (1945)
Month to date precipitation 14.02 4.50  
Year to date precipitation 29.11 20.65  
Sea Level Pressure  
Sea Level Pressure 29.69 in    
Wind  
Wind Speed 14 mph (South)    
Max Wind Speed 35 mph    
Max Gust Speed 44 mph    
Visibility 8 miles    
Events Fog , Rain , Thunderstorm    
T = Trace of Precipitation, MM = Missing Value Source: NWS Daily Summary

Daily Weather History Graph

Daily Weather History Graph

Search for Another Location

Airport or City:

Trip Planner

Search our weather history database for the weather conditions in past years. The results will help you decide how hot, cold, wet, or windy it might be!

Date:

Astronomy

Apr. 28, 2014 Rise Set
Actual Time 6:11 AM CDT 7:33 PM CDT
Civil Twilight 5:45 AM CDT 7:59 PM CDT
Nautical Twilight 5:14 AM CDT 8:30 PM CDT
Astronomical Twilight 4:42 AM CDT 9:03 PM CDT
Moon 5:46 AM CDT (4/28) 7:13 PM CDT (4/28)
Length of Visible Light 14h 14m
Length of Day
13h 22m
Waning Crescent, 0% of the Moon is Illuminated
Apr 28
Waning Crescent
Apr 29
New
May 6
First Quarter
May 14
Full
May 21
Last Quarter

Hourly Weather History & Observations

Time (CDT) Temp. Heat Index Dew Point Humidity Pressure Visibility Wind Dir Wind Speed Gust Speed Precip Events Conditions
12:58 AM 73.9 °F - 66.9 °F 79% 29.75 in 10.0 mi South 13.8 mph - N/A   Overcast
1:06 AM 73.4 °F - 68.0 °F 83% 29.77 in 10.0 mi South 11.5 mph 23.0 mph N/A   Overcast
1:58 AM 73.0 °F - 68.0 °F 84% 29.75 in 10.0 mi South 11.5 mph - N/A   Overcast
2:58 AM 73.0 °F - 68.0 °F 84% 29.72 in 10.0 mi South 12.7 mph - N/A   Overcast
3:05 AM 73.4 °F - 68.0 °F 83% 29.73 in 10.0 mi South 10.4 mph - N/A   Overcast
3:58 AM 73.0 °F - 68.0 °F 84% 29.72 in 10.0 mi South 12.7 mph - N/A   Mostly Cloudy
4:06 AM 73.4 °F - 68.0 °F 83% 29.73 in 10.0 mi South 15.0 mph - N/A   Scattered Clouds
4:36 AM 73.4 °F - 68.0 °F 83% 29.73 in 10.0 mi South 13.8 mph 21.9 mph N/A Thunderstorm Thunderstorm
4:51 AM 73.4 °F - 68.0 °F 83% 29.72 in 10.0 mi South 16.1 mph 21.9 mph N/A   Partly Cloudy
4:58 AM 73.9 °F - 68.0 °F 82% 29.71 in 10.0 mi South 15.0 mph - N/A   Partly Cloudy
5:38 AM 73.4 °F - 68.0 °F 83% 29.73 in 10.0 mi South 10.4 mph - N/A   Mostly Cloudy
5:58 AM 73.0 °F - 68.0 °F 84% 29.73 in 10.0 mi South 12.7 mph 21.9 mph N/A   Overcast
6:44 AM 73.4 °F - 68.0 °F 83% 29.73 in 10.0 mi South 19.6 mph 29.9 mph N/A   Scattered Clouds
6:58 AM 73.9 °F - 68.0 °F 82% 29.72 in 10.0 mi South 15.0 mph 23.0 mph N/A   Scattered Clouds
7:14 AM 73.4 °F - 68.0 °F 83% 29.73 in 10.0 mi South 19.6 mph 24.2 mph N/A   Mostly Cloudy
7:58 AM 75.0 °F - 68.0 °F 79% 29.73 in 10.0 mi South 17.3 mph 25.3 mph N/A   Overcast
8:58 AM 77.0 °F - 68.0 °F 74% 29.77 in 10.0 mi South 17.3 mph 27.6 mph N/A   Mostly Cloudy
9:49 AM 77.0 °F - 66.2 °F 69% 29.81 in 10.0 mi SSW 16.1 mph 23.0 mph N/A   Overcast
9:58 AM 78.1 °F - 66.9 °F 68% 29.80 in 10.0 mi SW 15.0 mph 24.2 mph N/A   Mostly Cloudy
10:58 AM 78.1 °F - 68.0 °F 71% 29.81 in 10.0 mi South 11.5 mph - N/A   Overcast
11:27 AM 78.8 °F - 69.8 °F 74% 29.81 in 10.0 mi SSW 11.5 mph - N/A   Overcast
11:58 AM 78.8 °F - 69.8 °F 74% 29.78 in 10.0 mi South 9.2 mph - N/A   Overcast
12:58 PM 80.1 °F 82.9 °F 69.1 °F 69% 29.73 in 10.0 mi South 19.6 mph 26.5 mph N/A   Overcast
1:58 PM 84.0 °F 88.4 °F 70.0 °F 63% 29.70 in 10.0 mi South 21.9 mph 25.3 mph N/A   Mostly Cloudy
2:58 PM 82.9 °F 85.8 °F 68.0 °F 60% 29.65 in 10.0 mi South 20.7 mph 27.6 mph N/A   Mostly Cloudy
3:58 PM 81.0 °F 83.8 °F 68.0 °F 65% 29.60 in 10.0 mi South 19.6 mph 27.6 mph N/A   Overcast
4:58 PM 82.0 °F 84.5 °F 66.9 °F 60% 29.58 in 10.0 mi South 20.7 mph 29.9 mph N/A   Overcast
5:58 PM 80.1 °F 82.3 °F 66.9 °F 64% 29.59 in 10.0 mi South 15.0 mph 25.3 mph N/A   Overcast
6:58 PM 79.0 °F - 66.9 °F 66% 29.57 in 10.0 mi South 17.3 mph 27.6 mph N/A   Partly Cloudy
7:16 PM 78.8 °F - 68.0 °F 69% 29.58 in 10.0 mi South 19.6 mph 31.1 mph N/A Thunderstorm Thunderstorm
7:20 PM 78.8 °F - 68.0 °F 69% 29.57 in 10.0 mi South 23.0 mph 28.8 mph N/A Thunderstorm Thunderstorm
7:58 PM 78.1 °F - 68.0 °F 71% 29.53 in 10.0 mi South 23.0 mph 34.5 mph N/A Thunderstorm Thunderstorm
8:01 PM 78.8 °F - 68.0 °F 69% 29.57 in 10.0 mi South 25.3 mph 34.5 mph N/A Thunderstorm Thunderstorm
8:51 PM 71.6 °F - 66.2 °F 83% 29.63 in 1.5 mi SW 29.9 mph 43.7 mph 0.00 in Rain , Thunderstorm Heavy Thunderstorms and Rain
8:58 PM 66.0 °F - 64.0 °F 93% 29.59 in 0.5 mi SSW 29.9 mph 42.6 mph 0.40 in Fog , Rain , Thunderstorm Heavy Thunderstorms and Rain
9:05 PM 66.2 °F - 64.4 °F 94% 29.61 in 0.5 mi SSW 20.7 mph 35.7 mph 0.44 in Fog , Rain , Thunderstorm Heavy Thunderstorms and Rain
9:13 PM 66.2 °F - 66.2 °F 100% 29.63 in 0.8 mi West 13.8 mph 32.2 mph 1.09 in Rain , Thunderstorm Heavy Thunderstorms and Rain
9:36 PM 68.0 °F - 66.2 °F 94% 29.65 in 2.0 mi South 6.9 mph - 2.20 in Rain , Thunderstorm Heavy Thunderstorms and Rain
9:50 PM 68.0 °F - 66.2 °F 94% 29.66 in 1.0 mi Variable 6.9 mph 20.7 mph N/A Rain , Thunderstorm Heavy Thunderstorms and Rain
9:58 PM 68.0 °F - 66.9 °F 96% 29.67 in 1.2 mi SW 9.2 mph - 2.82 in Rain Heavy Rain
10:02 PM 68.0 °F - 66.2 °F 94% 29.68 in 2.0 mi SSW 10.4 mph - 0.06 in Rain , Thunderstorm Heavy Thunderstorms and Rain
10:10 PM 68.0 °F - 66.2 °F 94% 29.69 in 1.8 mi SSW 8.1 mph - 0.20 in Rain , Thunderstorm Heavy Thunderstorms and Rain
10:20 PM 68.0 °F - 66.2 °F 94% 29.68 in 2.0 mi SSW 5.8 mph - 0.40 in Rain , Thunderstorm Heavy Rain
10:33 PM 68.0 °F - 66.2 °F 94% 29.67 in 9.0 mi WNW 4.6 mph - 0.52 in Rain , Thunderstorm Light Thunderstorms and Rain
10:47 PM 68.0 °F - 66.2 °F 94% 29.68 in 10.0 mi NNE 3.5 mph - 0.52 in Thunderstorm Thunderstorm
10:58 PM 68.0 °F - 66.9 °F 96% 29.67 in 10.0 mi Calm Calm - 0.52 in Thunderstorm Thunderstorm
11:06 PM 68.0 °F - 66.2 °F 94% 29.65 in 10.0 mi Calm Calm - N/A   Mostly Cloudy
11:40 PM 68.0 °F - 66.2 °F 94% 29.68 in 10.0 mi SSW 3.5 mph - N/A Thunderstorm Thunderstorm
11:58 PM 68.0 °F - 66.0 °F 93% 29.68 in 10.0 mi Calm Calm - N/A   Overcast